Tracking 19212 objects as of 17-Jul-2018
HD Live streaming from Space Station
objects crossing your sky now

FENGYUN 1C DEB

Track FENGYUN 1C DEB now!
10-day predictions


NORAD ID: 35099
Int'l Code: 1999-025DKB
Perigee: 479.4 km
Apogee: 684.2 km
Inclination: 98.3 °
Period: 96.2 minutes
Semi major axis: 6952 km
RCS: 0.0101 m2 (small)
Launch date: May 10, 1999
Source: People's Republic of China (PRC)
Launch site: Taiyaun Space Center, China (TSC)

Note: This is SATELLITE DEBRIS
aabbcc
Your satellite tracking list
Your tracking list is empty




NASA's NSSDC Master Catalog

Two Line Element Set (TLE):
1 35099U 99025DKB 18196.06820068 +.00002252 +00000-0 +15999-3 0  9993
2 35099 098.2789 302.6344 0147338 100.2089 261.5784 14.97486606551442
Source of the keplerian elements: AFSPC